ELEKTRO-L 3 (44903 NORAD) Tracking and Keplerian Element Data

This shows tracking and keplerian element data for the satellite.

Feedback or suggestion? Click here.




ElementValue
Catalog44903
NameELEKTRO-L 3
Epoch Orbit1871
Epoch Day34.7492075
Epoch Year2025
RAAN274.4093
Inclination0.0416
Eccentricity0.0001905
Argument of Perigee32.5744
Mean Anonmoly172.9002
Mean Motion1.00270203
Decay Rate-9.2E-07
L11 44903U 19095A 25034.74920750 -.00000092 00000+0 00000+0 0 9992
L22 44903 0.0416 274.4093 0001905 32.5744 172.9002 1.00270203 18715



Live tracking and technical data element details for ELEKTRO-L 3 (NORAD 44903). ELEKTRO-L 3 can be tracked NOW for your location showing map with azimuth and elevation plus other details from your city location.







IsCatalogInMostPopularTable: catalog: 44903, numindb: 306
Update: records affected: 1



GetName: 44903 ELEKTRO-L 3

Hit Count: updated at: Thu, 15 May 2025 10:44:38 GMT